TimeCST,TemperatureF,Dew PointF,Humidity,Sea Level PressureIn,VisibilityMPH,Wind Direction,Wind SpeedMPH,Gust SpeedMPH,PrecipitationIn,Events,Conditions,WindDirDegrees,DateUTC
12:54 AM,30.9,24.1,76,30.08,10.0,NE,6.9,-,N/A,,Clear,40,2013-02-25 06:54:00
1:54 AM,32.0,24.1,73,30.10,10.0,NE,3.5,-,N/A,,Clear,40,2013-02-25 07:54:00
2:54 AM,28.9,23.0,78,30.10,10.0,NE,4.6,-,N/A,,Clear,50,2013-02-25 08:54:00
3:54 AM,27.0,21.9,81,30.10,10.0,NE,6.9,-,N/A,,Clear,40,2013-02-25 09:54:00
4:54 AM,28.9,23.0,78,30.11,10.0,ENE,4.6,-,N/A,,Clear,60,2013-02-25 10:54:00
5:54 AM,28.9,23.0,78,30.09,9.0,NE,8.1,-,N/A,,Clear,40,2013-02-25 11:54:00
6:54 AM,30.9,24.1,76,30.08,9.0,ENE,5.8,-,N/A,,Clear,70,2013-02-25 12:54:00
7:54 AM,34.0,25.0,70,30.10,10.0,ENE,8.1,-,N/A,,Clear,70,2013-02-25 13:54:00
8:54 AM,37.0,26.1,65,30.08,10.0,ENE,9.2,-,N/A,,Clear,70,2013-02-25 14:54:00
9:54 AM,41.0,27.0,57,30.07,10.0,ENE,9.2,-,N/A,,Clear,70,2013-02-25 15:54:00
10:54 AM,45.0,27.0,49,30.05,10.0,ENE,11.5,-,N/A,,Clear,70,2013-02-25 16:54:00
11:54 AM,48.0,27.0,44,30.02,10.0,East,11.5,-,N/A,,Clear,80,2013-02-25 17:54:00
12:54 PM,50.0,27.0,41,29.96,10.0,East,10.4,18.4,N/A,,Clear,90,2013-02-25 18:54:00
1:54 PM,51.1,27.0,39,29.92,10.0,ENE,12.7,-,N/A,,Clear,60,2013-02-25 19:54:00
2:54 PM,51.1,27.0,39,29.90,10.0,ENE,18.4,23.0,N/A,,Clear,60,2013-02-25 20:54:00
3:54 PM,50.0,27.0,41,29.88,10.0,ENE,12.7,-,N/A,,Clear,70,2013-02-25 21:54:00
4:54 PM,48.9,26.1,41,29.84,10.0,ENE,15.0,-,N/A,,Partly Cloudy,60,2013-02-25 22:54:00
5:54 PM,46.0,26.1,46,29.81,10.0,ENE,13.8,20.7,N/A,,Mostly Cloudy,60,2013-02-25 23:54:00
6:54 PM,46.9,25.0,42,29.82,10.0,ENE,12.7,24.2,N/A,,Overcast,70,2013-02-26 00:54:00
7:54 PM,46.4,26.6,46,29.79,10.0,ENE,13.8,21.9,N/A,,Overcast,70,2013-02-26 01:54:00
8:54 PM,46.0,25.0,44,29.75,10.0,ENE,15.0,21.9,N/A,,Overcast,70,2013-02-26 02:54:00
9:54 PM,45.0,24.1,44,29.72,10.0,East,9.2,19.6,N/A,,Mostly Cloudy,80,2013-02-26 03:54:00
10:54 PM,46.0,25.0,44,29.67,10.0,East,15.0,23.0,N/A,,Overcast,80,2013-02-26 04:54:00
11:54 PM,46.0,25.0,44,29.62,10.0,East,10.4,21.9,N/A,,Overcast,80,2013-02-26 05:54:00